Terminal Aerodrome Forecast
Issued by NWS

Home | Current Version | Previous Version | Text Only | Print | Product List | Glossary On
Versions: 1 2 3 4 5 6 7 8 9 10 11 12 13 14 15 16 17 18 19 20 21
000
FTUS46 KHNX 160909 AAA
TAFFAT
TAF AMD
KFAT 160909Z 1609/1706 VRB03KT 1/4SM FG VV002
     FM161200 VRB04KT 2SM BR OVC100
     FM161800 33008KT 3SM HZ SCT100 BKN200=

USA.gov is the U.S. government's official web portal to all federal, state and local government web resources and services.